COSMOS 886 DEB, 9723

Orbit data source: Space-Track

COSMOS 886 DEB, 9723 is space debris in LEO originally from a launch on Mon, 27 Dec 1976 UTC launched from the Tyuratam Missile And Space Complex (TTMTR). Debris objects in space refer to the collection of defunct objects orbiting the Earth. Examples of debris include non-operational satellites, rocket bodies, and fragments generated from explosions, collisions, or faulty payload assembly.

Loading next visibility...
Identifier
9723, 1976-126U
Orbit
LEO
Country
Flag of CISCIS
Related business
Manufacturer
Unknown
Mission
Spacecraft
Bus & Motor
Unknown
Mass
Unknown
Launch date (UTC)
1976-12-27 (49 years ago)
Launch vehicle
Unknown
Launch site
Tyuratam Missile And Space Complex (TTMTR)
Object type
Payload
Rocket body
Debris
Shape & HBR
Unknown shape, 0.1 m
Radar Cross Section
Medium (>0.1 m² and <1 m²)

Expand to show TLE details & history
Last TLE update: 1 day ago

TLE from 1 day ago
0 COSMOS 886 DEB
1 09723U 76126U   26174.40031694  .00001788  00000-0  16828-2 0  9991
2 09723  65.7512 220.6892 0696760 281.2091  71.1444 13.07087970299682
Epoch: 2026-06-23T09:36Z
TLE epoch observation values (Epoch: 2026-06-23T09:36:27.383Z)
Latitude
-0.00005°
Longitude
165.00265°
Altitude
1,099.087 km
Speed
7.369 km/s
True Right ascension
14h 42m 45s
True Declination
0° 00' 00"
Sunlit
Object was in full shadow at epoch
Visualization orbit readout
Latitude
Unknown
Longitude
Unknown
Altitude
Unknown
Speed
Unknown
Apparent Right ascension
Unknown
Apparent Declination
Unknown
Sunlit
N/A
Visualization observer readout
Local Sidereal Time
01:43:38
Azimuth
Unknown
Elevation
Unknown
Doppler factor
Unknown
Orbital elements
Apogee altitude
1,763.324 km
Perigee altitude
702.696 km
Semi-major axis
7,611.147 km
Eccentricity
0.06968
Inclination
65.7512°
RAAN
220.6892°
Arg. of periapsis
281.2091°
True anomaly
78.895°
Mean anomaly
71.1444°
Eccentric anomaly
75.00052°
Mean motion
3.26865 °/min
Orbital period
110.14 mins
BSTAR
0.0016828
Loading maneuver chart data...
Computing Atmospheric mass density...

Documentation

Showing up to 5 results
|